{"data":{"norad_id":49264,"epoch":"2026-05-25T02:34:43.999680Z","epoch_age_seconds":75921,"freshness":"FRESH","line1":"1 49264U 21088E   26145.10745370  .00007258  00000+0  28768-3 0  9994","line2":"2 49264  97.3883 206.5755 0013496 141.1057 219.1155 15.25613316256669","mean_motion":15.25613316,"eccentricity":0.0013496,"inclination_deg":97.3883,"raan_deg":206.5755,"arg_perigee_deg":141.1057,"mean_anomaly_deg":219.1155,"bstar":0.00028768,"rev_number":25666,"period_min":94.388268960285,"perigee_km":479.67656777494,"apogee_km":498.21219383801,"semimajor_km":6867.0813808065,"source":"CELESTRAK","updated_at":"2026-05-25T13:37:57.138503Z"}}